Meteo Giornale » Osservazioni meteo Italia » Rimini

ore: 07:20 - Osservazioni Meteo Rimini
Lat. 44° 2' N Lon. 12° 37' E Alt. 12 metri s.l.m.

sereno

23 °C

Sereno

Temp. 24 Ore

22 °C

30 °C

Sud-Ovest

9.3 Km/h

Dew point 13 °C

Umidità 53 %

Visibilità  10 Km

Il sole sorge alle ore 06:33

Il sole tramonta alle ore 19:44

Data e Ora Cielo e Fenomeni T °C DP °C Um. % Pres. hPa Vis. km Vento km/h
Oggi h: 07:20 sereno Sereno 23 13 53 1017 10 SO 9.3
Oggi h: 06:50 sereno Sereno 22 14 60 1017 10 O/SO 7.4
Oggi h: 06:20 poco_nuvoloso Poco Nuvoloso 22 16 68 1017 10 SO 7.4
Oggi h: 05:50 sereno Sereno 22 16 68 1017 10 N 3.7
Oggi h: 05:20 sereno Sereno 22 16 68 1017 10 SO 9.3
Oggi h: 04:50 nuvoloso Nuvoloso 22 17 73 1017 10 S/SO 7.4
Oggi h: 04:20 sereno Sereno 22 17 73 1017 10 N 5.5
Oggi h: 03:50 sereno Sereno 23 18 73 1017 10 S/SO 7.4
Oggi h: 03:20 sereno Sereno 23 18 73 1017 10 N 5.5
Oggi h: 02:50 nuvoloso Nuvoloso 23 18 73 1017 10 N 5.5
Oggi h: 02:20 sereno Sereno 23 20 83 1017 10 O/SO 7.4
Oggi h: 01:50 sereno Sereno 23 21 88 1017 10 N 3.7
Oggi h: 01:20 sereno Sereno 23 21 88 1017 10 N 3.7
Oggi h: 00:50 sereno Sereno 24 22 88 1017 10 N 1.8
Oggi h: 00:20 sereno Sereno 24 22 88 1017 10 O 7.4
Ieri h: 23:50 sereno Sereno 24 22 88 1017 10 N 1.8
Ieri h: 23:20 sereno Sereno 25 22 83 1017 10 N 1.8
Ieri h: 22:50 sereno Sereno 26 23 83 1016 10 N 1.8
Ieri h: 22:20 sereno Sereno 26 23 83 1017 10 N 5.5
Ieri h: 21:50 sereno Sereno 26 23 83 1017 10 N 5.5
Ieri h: 21:20 sereno Sereno 27 23 78 1016 10 E/SE 9.3
Ieri h: 20:50 sereno Sereno 27 23 78 1016 10 E 7.4
Ieri h: 20:20 sereno Sereno 27 23 78 1016 10 E 9.3
Ieri h: 19:50 poco_nuvoloso Poco Nuvoloso 27 24 83 1016 10 E 13
Ieri h: 19:20 sereno Sereno 28 24 78 1016 10 E 11.1
Ieri h: 18:50 sereno Sereno 28 23 74 1016 10 E 13
Ieri h: 18:20 sereno Sereno 29 22 66 1016 10 E 11.1
Ieri h: 17:50 sereno Sereno 29 21 62 1016 10 E 13
Ieri h: 17:20 sereno Sereno 30 21 58 1016 10 E 13
Ieri h: 16:50 sereno Sereno 30 20 55 1016 10 E 14.8
Ieri h: 16:20 sereno Sereno 29 21 62 1016 10 E/NE 16.7
Ieri h: 15:50 sereno Sereno 30 21 58 1016 10 E/NE 16.7
Ieri h: 15:20 sereno Sereno 30 21 58 1016 10 E/NE 16.7
Ieri h: 14:50 sereno Sereno 30 19 51 1016 10 E/NE 18.5
Ieri h: 14:20 sereno Sereno 30 21 58 1016 10 E/NE 18.5
Ieri h: 13:50 sereno Sereno 29 22 66 1016 10 E/NE 18.5
Ieri h: 13:20 sereno Sereno 29 22 66 1016 10 E/NE 16.7
Ieri h: 12:50 sereno Sereno 29 22 66 1016 10 NE 18.5
Ieri h: 12:20 sereno Sereno 29 21 62 1017 10 NE 16.7
Ieri h: 11:50 sereno Sereno 29 20 58 1017 10 NE 13
Ieri h: 11:20 sereno Sereno 29 19 54 1017 10 NE 13
Ieri h: 10:50 sereno Sereno 28 18 54 1017 10 NE 13
Ieri h: 10:20 sereno Sereno 29 17 48 1017 10 N 5.5
Ieri h: 09:50 poco_nuvoloso Poco Nuvoloso 28 16 48 1017 10 N 5.5
Ieri h: 09:20 poco_nuvoloso Poco Nuvoloso 28 17 51 1016 10 N 3.7
Ieri h: 08:50 nuvoloso Nuvoloso 27 15 47 1016 10 N 5.5
Ieri h: 08:20 sereno Sereno 25 15 53 1016 10 N 3.7
Ieri h: 07:50 sereno Sereno 23 15 60 1016 10 N 3.7